SNEZKA Weather Reports


time (UTC)temp
C
wind
direction
speed
KPH
gust
KPH
rain 1hr
cm
rain 24hr
cm
rain mn
cm
humidity
%
barometer
mb
20260903072159 7 260 35.4 0.0 0.00 0.00 0.00 87
20260903061957 7 240 25.7 0.0 0.00 0.00 0.00 81
20260903051958 7 250 25.7 0.0 0.00 0.00 0.00 70
20260903042359 7 270 35.4 0.0 0.00 0.00 0.00 93
20260903031957 7 260 35.4 0.0 0.00 0.00 0.00 75
20260903021957 7 240 35.4 0.0 0.00 0.00 0.00 99
20260903012158 7 270 29.0 0.0 0.00 0.00 0.00 99
20260903001959 7 260 35.4 0.0 0.00 0.00 0.00 93
20260902231957 8 240 25.7 0.0 0.00 0.00 0.00 87
20260902222359 8 210 29.0 0.0 0.00 0.00 0.00 87
20260902211959 8 170 25.7 0.0 0.00 0.00 0.00 81
20260902201959 7 210 14.5 0.0 0.00 0.00 0.00 99
20260902192200 8 210 19.3 0.0 0.00 0.00 0.00 87
20260902181957 8 220 14.5 0.0 0.00 0.00 0.00 87
20260902172159 8 250 8.0 0.0 0.00 0.00 0.00 93
20260902162400 11 220 11.3 32.2 0.00 0.00 0.00 76
20260902151958 10 250 19.3 0.0 0.00 0.00 0.00 87
20260902142159 10 240 19.3 35.4 0.00 0.00 0.00 81
20260902132159 11 230 22.5 0.0 0.00 0.00 0.00 81
20260902121958 11 230 29.0 0.0 0.00 0.00 0.00 76
20260902112159 10 240 29.0 49.9 0.00 0.00 0.00 76
20260902102259 10 250 22.5 0.0 0.00 0.00 0.00 76
20260902091959 8 240 29.0 46.7 0.00 0.00 0.00 87
20260902082159 7 220 35.4 0.0 0.00 0.00 0.00 87